• Join FlightAware (Why Join?)
  • Login
  • US Flag GB Flag 
05:09 EDT


 

Airport Tracker/Info


-or-


 

Live Flight TrackerFlight Track Log ✈ FDX1570 ✈ 30-Apr-2013 ✈ KMEM - KALB

Flight Track Log - Related Links

Times and Time Zones

All times are in EDT time to prevent confusion due to time zone crossing. See the FDX1570 flight status page for this flight to view local times or setup timezone preferences in your user account.

Time Position Orientation Groundspeed Altitude Reporting Facility
EDT Latitude Longitude Course Direction KTS MPH feet Rate Location/Type
04:23 35.0167 -89.9667 180° South 170 196 1,300  Level KMEM
04:24 34.9833 -89.9667 180° South 171 197 3,100 2,340 Climbing KMEM
04:25 34.9333 -89.9333 151° Southeast 279 321 5,600 3,180 Climbing KMEM
04:26 34.9333 -89.8500 90° East 282 325 9,100 3,000 Climbing KMEM
04:27 34.9667 -89.7500 68° East 312 359 11,400 2,100 Climbing KMEM
04:28 35.0239 -89.6319 59° Northeast 354 407 13,600 2,220 Climbing Memphis Center
04:29 35.0753 -89.5147 62° Northeast 382 440 16,200 2,580 Climbing Memphis Center
04:30 35.1286 -89.3897 62° Northeast 406 467 18,800 2,280 Climbing Memphis Center
04:31 35.1778 -89.2775 62° Northeast 416 479 20,800 1,980 Climbing Memphis Center
04:32 35.2392 -89.1419 61° Northeast 422 486 22,800 1,920 Climbing Memphis Center
04:33 35.3067 -89.0111 58° Northeast 438 504 24,700 1,680 Climbing Memphis Center
04:39 35.7430 -88.1600 58° Northeast 485 558 34,700 1,620 Climbing FlightAware
04:39 35.7910 -88.0650 58° Northeast 483 556 35,900 1,680 Climbing FlightAware
04:40 35.8420 -87.9640 58° Northeast 479 551 37,000 720 Climbing FlightAware
04:41 35.8930 -87.8640 58° Northeast 478 550 37,000  Level FlightAware
04:41 35.9400 -87.7690 59° Northeast 479 551 37,000  Level FlightAware
04:42 35.9920 -87.6670 58° Northeast 480 552 37,000  Level FlightAware
04:43 36.0400 -87.5710 58° Northeast 482 555 37,000  Level FlightAware
04:44 36.0910 -87.4670 59° Northeast 483 556 37,000  Level FlightAware
04:44 36.1390 -87.3700 58° Northeast 484 557 37,000  Level FlightAware
04:45 36.1840 -87.2780 59° Northeast 485 558 37,000  Level FlightAware
04:46 36.2380 -87.1690 58° Northeast 486 559 37,000  Level FlightAware
04:46 36.2850 -87.0740 58° Northeast 487 560 37,000  Level FlightAware
04:47 36.3370 -86.9660 59° Northeast 488 562 37,000  Level FlightAware
04:48 36.3830 -86.8730 58° Northeast 488 562 37,000  Level FlightAware
04:48 36.4300 -86.7740 59° Northeast 489 563 37,000  Level FlightAware
04:49 36.4850 -86.6630 58° Northeast 492 566 37,000  Level FlightAware
04:49 36.4919 -86.6486 59° Northeast 491 565 37,000  Level FlightAware ADS-B
04:50 36.5310 -86.5690 59° Northeast 492 566 37,000  Level FlightAware
04:50 36.5633 -86.5006 60° Northeast 493 567 37,000  Level FlightAware ADS-B
04:52 36.6470 -86.3250 59° Northeast 493 567 37,000  Level FlightAware
04:52 36.6940 -86.2280 59° Northeast 493 567 37,000  Level FlightAware
04:53 36.7430 -86.1280 59° Northeast 492 566 37,000  Level FlightAware
04:53 36.7569 -86.0985 60° Northeast 493 567 37,000  Level FlightAware ADS-B
04:54 36.7921 -86.0227 60° Northeast 493 567 37,000  Level FlightAware ADS-B
04:54 36.8272 -85.9492 59° Northeast 494 568 37,000  Level FlightAware ADS-B
04:55 36.8646 -85.8709 59° Northeast 494 568 37,000  Level FlightAware ADS-B
04:55 36.9055 -85.7850 59° Northeast 494 568 37,000  Level FlightAware ADS-B
04:56 36.9390 -85.7110 60° Northeast 494 568 37,000  Level FlightAware
04:56 36.9646 -85.6569 59° Northeast 495 570 37,000  Level FlightAware ADS-B
04:57 37.0380 -85.5010 59° Northeast 495 570 37,000  Level FlightAware
04:58 37.0990 -85.3700 60° Northeast 496 571 37,000  Level FlightAware
04:59 37.1530 -85.2530 60° Northeast 495 570 37,000  Level FlightAware
04:59 37.1916 -85.1714 59° Northeast 496 571 37,000  Level FlightAware ADS-B
05:00 37.2293 -85.0895 60° Northeast 494 568 37,000 60 Level FlightAware ADS-B
05:00 37.2656 -85.0103 60° Northeast 493 567 37,100 840 Climbing FlightAware ADS-B
05:02 37.3460 -84.8354 60° Northeast 490 564 38,500 1,020 Climbing FlightAware ADS-B
05:02 37.3909 -84.7378 60° Northeast 483 556 39,000 420 Climbing FlightAware ADS-B
05:03 37.4242 -84.6650 60° Northeast 479 551 39,000  Level FlightAware ADS-B
05:04 37.4862 -84.5301 60° Northeast 478 550 39,000  Level FlightAware ADS-B
05:04 37.5255 -84.4431 60° Northeast 480 552 39,000  Level FlightAware ADS-B
05:05 37.5741 -84.3361 60° Northeast 481 554 39,000  Level FlightAware ADS-B
05:06 37.6050 -84.2650 61° Northeast 481 554 39,000  Level FlightAware
05:06 37.6315 -84.2068 60° Northeast 481 554 39,000  Level FlightAware ADS-B
05:06 37.6735 -84.1240 57° Northeast 481 554 39,000  Level FlightAware ADS-B
05:08 37.7610 -83.9750 53° Northeast 480 552 39,000  Level FlightAware
05:08 37.8130 -83.8840 54° Northeast 480 552 39,000  Level FlightAware
05:09 37.8550 -83.8120 54° Northeast 480 552 39,000  Level FlightAware
05:10 37.9450 -83.6580 53° Northeast 479 551 39,000  Level FlightAware
05:11 37.9870 -83.5830 55° Northeast 479 551 39,000  Level FlightAware
05:11 38.0410 -83.4930 53° Northeast 479 551 39,000  Level FlightAware
05:12 38.0860 -83.4160 53° Northeast 479 551 39,000  Level FlightAware
05:13 38.1620 -83.2780 55° Northeast 478 550 39,000  Level FlightAware
05:13 38.2060 -83.2010 54° Northeast 478 550 39,000  Level FlightAware
05:14 38.2510 -83.1240 53° Northeast 478 550 39,000  Level FlightAware
05:15 38.3280 -82.9860 55° Northeast 480 552 39,000  Level FlightAware
05:15 38.3710 -82.9080 55° Northeast 480 552 39,000  Level FlightAware
05:16 38.4350 -82.7950 54° Northeast 482 555 39,000  Level FlightAware
05:17 38.4850 -82.7050 55° Northeast 482 555 39,000  Level FlightAware
05:18 38.5400 -82.6070 54° Northeast 483 556 39,000  Level FlightAware
05:18 38.5990 -82.5000 55° Northeast 484 557 39,000  Level FlightAware
05:19 38.6440 -82.4210 54° Northeast 484 557 39,000  Level FlightAware
05:20 38.7090 -82.3030 55° Northeast 486 559 39,000  Level FlightAware
05:20 38.7610 -82.2090 55° Northeast 487 560 39,000  Level FlightAware
05:21 38.8140 -82.1130 55° Northeast 487 560 39,000  Level FlightAware
05:22 38.8720 -82.0060 55° Northeast 486 559 39,000  Level FlightAware
05:23 38.9250 -81.9100 55° Northeast 485 558 39,000  Level FlightAware
05:23 38.9740 -81.8200 55° Northeast 484 557 39,000  Level FlightAware
05:24 39.0320 -81.7140 55° Northeast 483 556 39,000  Level FlightAware
05:25 39.0780 -81.6290 55° Northeast 482 555 39,000  Level FlightAware
05:25 39.1430 -81.5090 55° Northeast 481 554 39,000  Level FlightAware
05:26 39.1920 -81.4170 55° Northeast 482 555 39,000  Level FlightAware
05:27 39.2440 -81.3230 54° Northeast 483 556 39,000  Level FlightAware
05:27 39.3000 -81.2160 56° Northeast 483 556 39,000  Level FlightAware
05:28 39.3510 -81.1210 55° Northeast 485 558 39,000  Level FlightAware
05:29 39.4090 -81.0130 55° Northeast 486 559 39,000  Level FlightAware
05:30 39.4600 -80.9150 56° Northeast 487 560 39,000  Level FlightAware
05:30 39.5170 -80.8090 55° Northeast 488 562 39,000  Level FlightAware
05:31 39.5670 -80.7120 56° Northeast 489 563 39,000  Level FlightAware
05:32 39.6250 -80.6000 56° Northeast 491 565 39,000  Level FlightAware
05:32 39.6760 -80.5020 56° Northeast 492 566 39,000  Level FlightAware
05:33 39.7170 -80.4230 56° Northeast 493 567 39,000  Level FlightAware
05:34 39.7810 -80.2970 57° Northeast 493 567 39,000  Level FlightAware
05:34 39.8300 -80.2010 56° Northeast 493 567 39,000  Level FlightAware
05:35 39.8830 -80.0970 56° Northeast 493 567 39,000  Level FlightAware
05:36 39.9390 -79.9860 57° Northeast 491 565 39,000  Level FlightAware
05:36 39.9830 -79.8990 57° Northeast 489 563 39,000  Level FlightAware
05:37 40.0320 -79.8010 57° Northeast 487 560 39,000  Level FlightAware
05:38 40.0880 -79.6900 57° Northeast 486 559 39,000  Level FlightAware
05:39 40.1360 -79.5950 57° Northeast 485 558 39,000  Level FlightAware
05:39 40.1860 -79.4940 57° Northeast 486 559 39,000  Level FlightAware
05:40 40.2420 -79.3830 57° Northeast 486 559 39,000  Level FlightAware
05:41 40.2900 -79.2840 58° Northeast 486 559 39,000  Level FlightAware
05:41 40.3440 -79.1760 57° Northeast 485 558 39,000  Level FlightAware
05:42 40.3940 -79.0750 57° Northeast 484 557 39,000  Level FlightAware
05:43 40.4420 -78.9760 57° Northeast 483 556 39,000  Level FlightAware
05:43 40.4950 -78.8700 57° Northeast 481 554 39,000  Level FlightAware
05:44 40.5420 -78.7720 58° Northeast 480 552 39,000  Level FlightAware
05:45 40.5890 -78.6740 58° Northeast 479 551 39,000  Level FlightAware
05:46 40.6430 -78.5630 57° Northeast 478 550 39,000  Level FlightAware
05:46 40.6782 -78.4919 57° Northeast 478 550 39,000  Level FlightAware ADS-B
05:47 40.7502 -78.3416 58° Northeast 479 551 39,000  Level FlightAware ADS-B
05:48 40.7790 -78.2830 57° Northeast 480 552 39,000  Level FlightAware
05:48 40.8280 -78.1790 58° Northeast 480 552 39,000  Level FlightAware
05:49 40.8760 -78.0810 57° Northeast 480 552 39,000  Level FlightAware
05:50 40.9170 -77.9970 57° Northeast 480 552 39,000  Level FlightAware
05:50 40.9800 -77.8510 60° Northeast 480 552 39,000  Level FlightAware
05:51 41.0310 -77.7370 59° Northeast 479 551 39,000  Level FlightAware
05:51 41.0445 -77.7041 61° Northeast 480 552 39,000  Level FlightAware ADS-B
05:52 41.0782 -77.6281 60° Northeast 479 551 39,000  Level FlightAware ADS-B
05:52 41.1120 -77.5527 59° Northeast 476 548 39,000  Level FlightAware ADS-B
05:53 41.1472 -77.4722 60° Northeast 475 547 39,000  Level FlightAware ADS-B
05:53 41.1921 -77.3718 59° Northeast 473 544 39,000  Level FlightAware ADS-B
05:54 41.2275 -77.2919 59° Northeast 473 544 39,000  Level FlightAware ADS-B
05:54 41.2609 -77.2142 60° Northeast 471 542 39,000  Level FlightAware ADS-B
05:55 41.2941 -77.1390 60° Northeast 471 542 39,000  Level FlightAware ADS-B
05:55 41.3212 -77.0766 60° Northeast 469 540 39,000  Level FlightAware ADS-B
05:56 41.3498 -77.0190 57° Northeast 468 539 39,000 -180 Level FlightAware ADS-B
05:56 41.3665 -76.9893 53° Northeast 465 535 38,900 -1,140 Descending FlightAware ADS-B
05:56 41.4010 -76.9348 50° Northeast 464 534 38,300 -1,860 Descending FlightAware ADS-B
05:57 41.4444 -76.8665 50° Northeast 477 549 37,200 -1,920 Descending FlightAware ADS-B
05:57 41.4882 -76.7989 49° Northeast 482 555 36,400 -1,440 Descending FlightAware ADS-B
05:58 41.5315 -76.7313 49° Northeast 480 552 35,800 -1,200 Descending FlightAware ADS-B
05:58 41.5754 -76.6638 49° Northeast 481 554 35,200 -1,140 Descending FlightAware ADS-B
05:59 41.6187 -76.5940 50° Northeast 479 551 34,700 -1,200 Descending FlightAware ADS-B
05:59 41.6623 -76.5265 49° Northeast 479 551 34,000 -1,320 Descending FlightAware ADS-B
06:00 41.7054 -76.4589 49° Northeast 480 552 33,400 -1,320 Descending FlightAware ADS-B
06:00 41.7487 -76.3909 50° Northeast 482 555 32,700 -1,380 Descending FlightAware ADS-B
06:01 41.7931 -76.3225 49° Northeast 484 557 32,000 -1,380 Descending FlightAware ADS-B
06:01 41.8371 -76.2516 50° Northeast 485 558 31,300 -1,320 Descending FlightAware ADS-B
06:02 41.8811 -76.1827 49° Northeast 485 558 30,700 -1,920 Descending FlightAware ADS-B
06:03 41.9650 -76.0500 50° Northeast 479 551 28,500 -2,340 Descending FlightAware
06:03 41.9990 -75.9950 50° Northeast 474 545 27,300 -960 Descending FlightAware
06:04 42.0570 -75.9030 50° Northeast 474 545 27,300  Level FlightAware
06:05 42.1170 -75.8070 50° Northeast 474 545 27,300  Level FlightAware
06:06 42.1650 -75.7300 50° Northeast 474 545 27,300  Level FlightAware
06:06 42.2130 -75.6530 50° Northeast 474 545 27,300 -2,340 Level FlightAware
06:07 42.3050 -75.5030 50° Northeast 460 529 24,000 -2,340 Descending FlightAware
06:08 42.3600 -75.4150 50° Northeast 465 535 24,000  Level FlightAware
06:09 42.4210 -75.3140 51° Northeast 453 521 24,000 -300 Level FlightAware
06:09 42.4790 -75.2080 53° Northeast 450 518 23,600 -240 Descending FlightAware
06:10 42.5300 -75.1090 55° Northeast 450 518 23,600  Level FlightAware
06:11 42.5710 -75.0310 54° Northeast 450 518 23,600  Level FlightAware
06:12 42.6110 -74.9520 55° Northeast 450 518 23,600  Level FlightAware
06:12 42.6520 -74.8730 55° Northeast 450 518 23,600  Level FlightAware
06:13 42.6920 -74.7940 55° Northeast 450 518 23,600 -9,000 Level FlightAware
06:14 42.5181 -74.5583 55° Northeast 395 455 11,800 -13,320 Descending Boston Center
06:14 42.5208 -74.5219 84° East 377 434 11,200 -900 Descending Boston Center
06:15 42.5264 -74.4461 84° East 356 410 10,900 -1,020 Descending Boston Center
06:15 42.5272 -74.4067 88° East 284 327 10,200 -2,340 Descending Boston Center
06:16 42.5328 -74.3278 85° East 294 338 8,600 -2,220 Descending Boston Center
06:16 42.5311 -74.2997 95° East 270 311 8,000 -1,740 Descending Boston Center
06:17 42.5364 -74.2236 85° East 272 313 6,900 -1,380 Descending Boston Center
06:17 42.5369 -74.1983 88° East 274 315 6,600 -1,440 Descending Boston Center
06:18 42.5400 -74.1253 87° East 272 313 5,500 -1,620 Descending Boston Center
06:18 42.5425 -74.0969 83° East 269 310 5,000 -1,620 Descending Boston Center
06:19 42.5456 -74.0239 87° East 272 313 3,900 -1,380 Descending Boston Center
06:19 42.5461 -73.9928 89° East 266 306 3,600 -420 Descending Boston Center
06:20 42.5511 -73.9281 84° East 261 300 3,500 -420 Descending Boston Center
06:20 42.5514 -73.9028 89° East 220 253 3,200 -540 Descending Boston Center
06:21 42.5542 -73.8494 86° East 222 255 3,000 -420 Descending Boston Center
06:21 42.5669 -73.8269 52° Northeast 220 253 2,800 -720 Descending Boston Center
06:22 42.5922 -73.8106 26° Northeast 197 227 2,300 -840 Descending Boston Center
06:22 42.6236 -73.8031 10° North 223 257 2,000 -660 Descending Boston Center
06:23 42.6819 -73.8042 359° North 176 203 1,400 -720 Descending Boston Center
06:24 42.7256 -73.8053 359° North 134 154 600 -840 Descending Boston Center